Location: Gaast
(52.9002°N, 5.8891°E)
Time: 01:50:40
(UTC+00:00)

Cosmos 1190 Rocket - Pass Details

Date: 18 November 2025
Orbit: 752 x 775 km, 74.1° (Epoch: 13 December)

Event Time Altitude Azimuth Distance (km) Brightness Sun altitude
Rises 17:55:08 0° 200° (SSW) 3,243 7.6 -20.3°
Reaches altitude 10° 17:57:30 10° 200° (SSW) 2,320 6.8 -20.7°
Maximum altitude 18:02:47 81° 114° (ESE) 792 3.9 -21.5°
Enters shadow 18:05:26 31° 30° (NNE) 1,357 5.0 -21.9°
